Time,TemperatureF,DewpointF,PressureIn,WindDirection,WindDirectionDegrees,WindSpeedMPH,WindSpeedGustMPH,Humidity,HourlyPrecipIn,Conditions,Clouds,dailyrainin,SoftwareType,DateUTC
2013-01-22 10:17:00,69.4,33.0,30.02,SE,146,5.0,6.0,26,0.00,,,0.00,,2013-01-22 18:17:00,
2013-01-22 10:20:00,69.6,32.0,30.02,SE,144,1.0,6.0,25,0.00,,,0.00,,2013-01-22 18:20:00,
2013-01-22 10:30:00,70.0,34.0,30.03,SSW,196,3.0,6.0,27,0.00,,,0.00,,2013-01-22 18:30:00,
2013-01-22 10:40:00,70.8,33.0,30.03,ESE,117,1.0,7.0,25,0.00,,,0.00,,2013-01-22 18:40:00,
2013-01-22 10:50:00,71.7,32.0,30.03,ESE,107,3.0,5.0,23,0.00,,,0.00,,2013-01-22 18:50:00,
2013-01-22 11:00:00,72.3,33.0,30.03,SE,136,5.0,7.0,24,0.00,,,0.00,,2013-01-22 19:00:00,
2013-01-22 11:10:00,72.8,27.0,30.03,SE,139,6.0,7.0,18,0.00,,,0.00,,2013-01-22 19:10:00,
2013-01-22 11:20:00,73.3,26.0,30.02,SE,146,6.0,11.0,17,0.00,,,0.00,,2013-01-22 19:20:00,
2013-01-22 11:30:00,73.6,25.0,30.02,SSE,149,6.0,10.0,16,0.00,,,0.00,,2013-01-22 19:30:00,
2013-01-22 11:40:00,73.5,29.0,30.01,SSE,151,3.0,7.0,19,0.00,,,0.00,,2013-01-22 19:40:00,
2013-01-22 11:50:00,72.3,30.0,30.01,SSW,209,10.0,16.0,21,0.00,,,0.00,,2013-01-22 19:50:00,
2013-01-22 12:00:00,70.4,29.0,30.01,SW,214,11.0,13.0,21,0.00,,,0.00,,2013-01-22 20:00:00,
2013-01-22 12:10:00,70.0,30.0,30.01,SW,234,9.0,13.0,23,0.00,,,0.00,,2013-01-22 20:10:00,
2013-01-22 12:20:00,70.3,28.0,30.01,SW,230,13.0,16.0,21,0.00,,,0.00,,2013-01-22 20:20:00,
2013-01-22 12:30:00,68.7,27.0,30.00,WSW,243,14.0,17.0,21,0.00,,,0.00,,2013-01-22 20:30:00,
2013-01-22 12:40:00,69.4,25.0,29.99,WSW,238,12.0,15.0,19,0.00,,,0.00,,2013-01-22 20:40:00,
2013-01-22 12:50:00,71.0,23.0,29.99,WSW,238,13.0,17.0,16,0.00,,,0.00,,2013-01-22 20:50:00,
2013-01-22 13:00:00,69.1,21.0,29.99,WSW,241,17.0,19.0,16,0.00,,,0.00,,2013-01-22 21:00:00,
2013-01-22 13:10:00,67.4,17.0,30.00,WSW,243,20.0,25.0,14,0.00,,,0.00,,2013-01-22 21:10:00,
2013-01-22 13:20:00,67.6,18.0,30.00,WSW,252,19.0,24.0,15,0.00,,,0.00,,2013-01-22 21:20:00,
2013-01-22 13:30:00,65.4,21.0,29.99,SW,229,17.0,24.0,18,0.00,,,0.00,,2013-01-22 21:30:00,
2013-01-22 13:40:00,65.8,26.0,29.99,SSE,161,0.0,17.0,22,0.00,,,0.00,,2013-01-22 21:40:00,
2013-01-22 13:50:00,66.3,25.0,30.00,West,277,2.0,4.0,21,0.00,,,0.00,,2013-01-22 21:50:00,
2013-01-22 14:00:00,65.8,25.0,30.00,SW,228,6.0,7.0,21,0.00,,,0.00,,2013-01-22 22:00:00,
2013-01-22 14:10:00,65.3,24.0,30.00,SW,236,6.0,9.0,21,0.00,,,0.00,,2013-01-22 22:10:00,
2013-01-22 14:20:00,66.1,26.0,29.99,ESE,107,3.0,5.0,22,0.00,,,0.00,,2013-01-22 22:20:00,
2013-01-22 14:30:00,66.4,20.0,29.99,ENE,77,2.0,5.0,17,0.00,,,0.00,,2013-01-22 22:30:00,
2013-01-22 14:40:00,67.0,19.0,29.98,ENE,77,2.0,4.0,16,0.00,,,0.00,,2013-01-22 22:40:00,
2013-01-22 14:50:00,67.4,26.0,29.98,East,84,1.0,4.0,21,0.00,,,0.00,,2013-01-22 22:50:00,
2013-01-22 15:00:00,67.5,25.0,29.98,East,88,2.0,3.0,20,0.00,,,0.00,,2013-01-22 23:00:00,
2013-01-22 15:10:00,66.9,24.0,29.98,East,86,2.0,3.0,20,0.00,,,0.00,,2013-01-22 23:10:00,
2013-01-22 15:20:00,66.0,24.0,29.98,NE,36,2.0,6.0,20,0.00,,,0.00,,2013-01-22 23:20:00,
2013-01-22 15:30:00,66.0,23.0,29.98,NE,36,2.0,3.0,19,0.00,,,0.00,,2013-01-22 23:30:00,
2013-01-22 15:40:00,65.8,24.0,29.98,East,90,3.0,5.0,20,0.00,,,0.00,,2013-01-22 23:40:00,
2013-01-22 15:50:00,66.0,24.0,29.98,East,90,0.0,3.0,20,0.00,,,0.00,,2013-01-22 23:50:00,
2013-01-22 16:00:00,65.8,26.0,29.98,East,90,2.0,2.0,22,0.00,,,0.00,,2013-01-23 00:00:00,
2013-01-22 16:10:00,65.7,27.0,29.98,East,90,2.0,3.0,23,0.00,,,0.00,,2013-01-23 00:10:00,
2013-01-22 16:20:00,65.5,27.0,29.98,East,90,1.0,5.0,23,0.00,,,0.00,,2013-01-23 00:20:00,
2013-01-22 16:30:00,64.9,28.0,29.98,SSW,196,2.0,6.0,25,0.00,,,0.00,,2013-01-23 00:30:00,
2013-01-22 16:40:00,65.0,27.0,29.98,ESE,121,3.0,4.0,24,0.00,,,0.00,,2013-01-23 00:40:00,
2013-01-22 16:50:00,65.0,27.0,29.98,SE,128,2.0,9.0,24,0.00,,,0.00,,2013-01-23 00:50:00,
2013-01-22 17:00:00,64.6,28.0,29.98,SE,136,0.0,3.0,25,0.00,,,0.00,,2013-01-23 01:00:00,
2013-01-22 17:10:00,64.1,28.0,29.98,SE,136,2.0,3.0,25,0.00,,,0.00,,2013-01-23 01:10:00,
2013-01-22 17:20:00,63.8,28.0,29.98,SE,136,2.0,3.0,26,0.00,,,0.00,,2013-01-23 01:20:00,
2013-01-22 17:30:00,63.5,28.0,29.98,ESE,121,3.0,4.0,26,0.00,,,0.00,,2013-01-23 01:30:00,
2013-01-22 17:40:00,62.6,33.0,29.98,ESE,122,5.0,7.0,33,0.00,,,0.00,,2013-01-23 01:40:00,
2013-01-22 17:50:00,61.9,34.0,29.98,ESE,119,5.0,5.0,35,0.00,,,0.00,,2013-01-23 01:50:00,
2013-01-22 18:00:00,61.4,33.0,29.98,SE,140,5.0,6.0,34,0.00,,,0.00,,2013-01-23 02:00:00,
2013-01-22 18:10:00,60.8,31.0,29.98,SE,136,7.0,7.0,33,0.00,,,0.00,,2013-01-23 02:10:00,
2013-01-22 18:20:00,60.5,30.0,29.98,SSE,152,3.0,6.0,32,0.00,,,0.00,,2013-01-23 02:20:00,
2013-01-22 18:30:00,60.5,29.0,29.99,SE,142,5.0,5.0,30,0.00,,,0.00,,2013-01-23 02:30:00,
2013-01-22 18:40:00,60.8,28.0,29.99,SE,145,4.0,5.0,29,0.00,,,0.00,,2013-01-23 02:40:00,
2013-01-22 18:50:00,60.2,29.0,30.00,SE,130,5.0,6.0,31,0.00,,,0.00,,2013-01-23 02:50:00,
2013-01-22 19:00:00,59.7,27.0,30.00,SE,141,0.0,6.0,29,0.00,,,0.00,,2013-01-23 03:00:00,
2013-01-22 19:10:00,61.1,23.0,30.00,SSW,194,2.0,7.0,23,0.00,,,0.00,,2013-01-23 03:10:00,
2013-01-22 19:20:00,61.2,21.0,30.00,South,189,4.0,4.0,21,0.00,,,0.00,,2013-01-23 03:20:00,
2013-01-22 19:30:00,61.5,22.0,30.00,SE,145,4.0,5.0,22,0.00,,,0.00,,2013-01-23 03:30:00,
2013-01-22 19:40:00,61.3,22.0,30.00,SE,145,3.0,4.0,22,0.00,,,0.00,,2013-01-23 03:40:00,
2013-01-22 19:50:00,59.7,29.0,30.00,ESE,117,2.0,4.0,31,0.00,,,0.00,,2013-01-23 03:50:00,
2013-01-22 20:00:00,59.5,27.0,30.00,ESE,117,1.0,3.0,29,0.00,,,0.00,,2013-01-23 04:00:00,
2013-01-22 20:10:00,59.8,26.0,30.00,ESE,117,2.0,3.0,27,0.00,,,0.00,,2013-01-23 04:10:00,
2013-01-22 20:20:00,59.0,28.0,30.00,ESE,117,0.0,3.0,30,0.00,,,0.00,,2013-01-23 04:20:00,
2013-01-22 20:30:00,58.2,28.0,30.00,ESE,117,1.0,2.0,32,0.00,,,0.00,,2013-01-23 04:30:00,
2013-01-22 20:40:00,57.8,27.0,30.00,ESE,120,0.0,3.0,31,0.00,,,0.00,,2013-01-23 04:40:00,
2013-01-22 20:50:00,57.3,27.0,30.00,ESE,121,0.0,3.0,31,0.00,,,0.00,,2013-01-23 04:50:00,
2013-01-22 21:02:00,58.3,24.0,30.00,SE,130,0.0,0.0,27,0.00,,,0.00,,2013-01-23 05:02:00,
2013-01-22 21:10:00,58.6,22.0,30.00,SE,134,3.0,4.0,24,0.00,,,0.00,,2013-01-23 05:10:00,
2013-01-22 21:20:00,59.3,21.0,30.00,SE,142,4.0,4.0,23,0.00,,,0.00,,2013-01-23 05:20:00,
2013-01-22 21:31:00,59.8,20.0,30.00,SE,132,3.0,5.0,21,0.00,,,0.00,,2013-01-23 05:31:00,
2013-01-22 21:40:00,60.2,20.0,30.00,SE,132,4.0,5.0,21,0.00,,,0.00,,2013-01-23 05:40:00,
2013-01-22 21:50:00,59.5,21.0,30.00,ESE,115,4.0,5.0,22,0.00,,,0.00,,2013-01-23 05:50:00,
2013-01-22 22:00:00,59.9,20.0,30.00,ESE,115,2.0,4.0,21,0.00,,,0.00,,2013-01-23 06:00:00,
2013-01-22 22:10:00,60.0,19.0,30.00,ESE,115,2.0,4.0,20,0.00,,,0.00,,2013-01-23 06:10:00,
2013-01-22 22:20:00,60.3,20.0,30.01,ESE,116,2.0,4.0,21,0.00,,,0.00,,2013-01-23 06:20:00,
2013-01-22 22:30:00,60.0,19.0,30.00,ESE,116,0.0,3.0,20,0.00,,,0.00,,2013-01-23 06:30:00,
2013-01-22 22:40:00,60.2,19.0,30.00,ESE,116,0.0,2.0,20,0.00,,,0.00,,2013-01-23 06:40:00,
2013-01-22 22:50:00,60.4,19.0,30.01,ESE,116,2.0,3.0,20,0.00,,,0.00,,2013-01-23 06:50:00,
2013-01-22 23:00:00,61.0,18.0,30.01,ESE,116,2.0,3.0,19,0.00,,,0.00,,2013-01-23 07:00:00,
2013-01-22 23:10:00,62.2,18.0,30.00,SE,128,4.0,4.0,18,0.00,,,0.00,,2013-01-23 07:10:00,
2013-01-22 23:20:00,62.0,19.0,30.00,SSE,161,1.0,4.0,19,0.00,,,0.00,,2013-01-23 07:20:00,
2013-01-22 23:30:00,61.3,19.0,30.00,SSE,161,0.0,2.0,19,0.00,,,0.00,,2013-01-23 07:30:00,
2013-01-22 23:40:00,60.5,19.0,30.01,SSE,161,0.0,0.0,20,0.00,,,0.00,,2013-01-23 07:40:00,
2013-01-22 23:50:00,60.0,20.0,30.00,SSE,157,0.0,1.0,21,0.00,,,0.00,,2013-01-23 07:50:00,